Somerville, NJ

4:29 PM EST on December 14, 2019 (GMT -0500)
Somerset

Weather History for KSMQ - November, 2019

Change the Weather History Date:

Thursday, November 21, 2019

  Actual Average Record
Temperature  
Mean Temperature 42 °F -  
Max Temperature 54 °F 52 °F 76 °F (1985)
Min Temperature 30 °F 30 °F 16 °F (1951)
Degree Days  
Heating Degree Days 23    
Moisture  
Dew Point 32 °F    
Average Humidity 64    
Maximum Humidity 89    
Minimum Humidity 41    
Precipitation  
Precipitation 0.00 in - - ()
Sea Level Pressure  
Sea Level Pressure 30.12 in    
Wind  
Wind Speed 4 mph (NW)    
Max Wind Speed 7 mph    
Max Gust Speed -    
Visibility 10 miles    
Events      
Averages and records for this station are not official NWS values.
T = Trace of Precipitation, MM = Missing Value Source: NWS Daily Summary

Daily Weather History Graph

Daily Weather History Graph

Search for Another Location

Airport or City:

Astronomy

Nov. 21, 2019 Rise Set
Actual Time 6:51 AM EST 4:36 PM EST
Civil Twilight 6:22 AM EST 5:06 PM EST
Nautical Twilight 5:48 AM EST 5:39 PM EST
Astronomical Twilight 5:16 AM EST 6:12 PM EST
Moon 12:42 AM EST (11/21) 2:06 PM EST (11/21)
Length of Visible Light 10h 44m
Length of Day
9h 44m
Waning Crescent, 30% of the Moon is Illuminated
Nov 21
Waning Crescent
Nov 26
New
Dec 4
First Quarter
Dec 12
Full
Dec 18
Last Quarter

Hourly Weather History & Observations

Time (EST) Temp. Windchill Dew Point Humidity Pressure Visibility Wind Dir Wind Speed Gust Speed Precip Events Conditions
12:53 AM 43.0 °F 38.8 °F 32.0 °F 65% 30.12 in 10.0 mi NNW 6.9 mph - N/A   Partly Cloudy
1:53 AM 42.1 °F 37.7 °F 30.0 °F 62% 30.14 in 10.0 mi NW 6.9 mph - N/A   Clear
2:53 AM 39.0 °F 35.7 °F 28.9 °F 67% 30.16 in 10.0 mi NW 4.6 mph - N/A   Clear
3:53 AM 37.0 °F 33.3 °F 28.9 °F 73% 30.16 in 10.0 mi Variable 4.6 mph - N/A   Clear
4:53 AM 34.0 °F 31.0 °F 28.0 °F 79% 30.17 in 10.0 mi NW 3.5 mph - N/A   Clear
5:53 AM 30.9 °F - 28.0 °F 89% 30.19 in 10.0 mi Calm Calm - N/A   Clear
6:53 AM 30.0 °F - 27.0 °F 88% 30.19 in 10.0 mi Calm Calm - N/A   Clear
7:53 AM 32.0 °F - 28.0 °F 85% 30.20 in 10.0 mi Calm Calm - N/A   Clear
8:53 AM 45.0 °F 43.5 °F 33.1 °F 63% 30.21 in 10.0 mi NW 3.5 mph - N/A   Clear
9:53 AM 48.0 °F - 30.9 °F 52% 30.21 in 10.0 mi North 5.8 mph - N/A   Clear
10:53 AM 51.1 °F - 30.9 °F 46% 30.19 in 10.0 mi North 5.8 mph - N/A   Clear
11:53 AM 53.1 °F - 30.9 °F 43% 30.16 in 10.0 mi Variable 4.6 mph - N/A   Clear
12:53 PM 53.1 °F - 30.9 °F 43% 30.13 in 10.0 mi Variable 3.5 mph - N/A   Clear
1:53 PM 54.0 °F - 30.9 °F 41% 30.12 in 10.0 mi Calm Calm - N/A   Clear
2:53 PM 53.1 °F - 32.0 °F 45% 30.11 in 10.0 mi Variable 5.8 mph - N/A   Clear
3:53 PM 52.0 °F - 32.0 °F 47% 30.09 in 10.0 mi South 3.5 mph - N/A   Clear
5:53 PM 45.0 °F 43.5 °F 35.1 °F 68% 30.08 in 10.0 mi South 3.5 mph - N/A   Clear
6:53 PM 43.0 °F - 35.1 °F 74% 30.07 in 10.0 mi Calm Calm - N/A   Clear
7:53 PM 45.0 °F - 35.1 °F 68% 30.06 in 10.0 mi Calm Calm - N/A   Clear
8:53 PM 44.1 °F - 35.1 °F 71% 30.03 in 10.0 mi Calm Calm - N/A   Partly Cloudy
9:53 PM 44.1 °F - 35.1 °F 71% 30.01 in 10.0 mi Calm Calm - N/A   Mostly Cloudy
10:53 PM 44.1 °F - 35.1 °F 71% 29.97 in 10.0 mi Calm Calm - N/A   Partly Cloudy
11:53 PM 45.0 °F - 34.0 °F 65% 29.97 in 10.0 mi Calm Calm - N/A   Overcast